Location: Unspecified
(0.0000°N, 0.0000°E)
Time: 09:01:17
(UTC+00:00)

HULIANGWANG DIGUI-04 - Visible Passes

Search period start: 25 January 2026 00:00
Search period end: 04 February 2026 00:00
Orbit: 1167 x 1169 km, 86.5° (Epoch: 25 January)

Date Brightness Start Highest point End Pass type
(mag) Time Alt. Az. Time Alt. Az. Time Alt. Az.
25 Jan ? 05:31:15 10° N 05:38:22 76° E 05:45:31 10° S visible
25 Jan ? 19:11:56 10° WSW 19:14:14 12° W 19:16:33 10° WNW visible
26 Jan ? 05:05:50 10° NNE 05:12:39 49° E 05:19:29 10° SSE visible
26 Jan ? 18:43:34 10° SW 18:48:31 20° W 18:53:30 10° NW visible
27 Jan ? 04:40:48 10° NNE 04:46:56 31° E 04:53:04 10° SSE visible
28 Jan ? 04:16:21 10° NE 04:21:13 20° E 04:26:04 10° SE visible
29 Jan ? 03:53:30 10° ENE 03:55:30 11° E 03:57:30 10° ESE visible
29 Jan ? 05:37:07 10° N 05:44:09 63° W 05:51:13 10° S visible
30 Jan ? 05:11:16 10° N 05:18:25 86° E 05:25:37 10° S visible
31 Jan ? 04:45:45 10° NNE 04:52:42 56° E 04:59:41 10° SSE visible
1 Feb ? 04:20:35 10° NNE 04:26:59 36° E 04:33:23 10° SSE visible
2 Feb ? 03:55:55 10° NE 04:01:16 23° E 04:06:36 10° SE visible
2 Feb ? 05:43:36 10° NNW 05:49:55 35° W 05:56:19 10° SSW visible
3 Feb ? 03:32:16 10° ENE 03:35:33 14° E 03:38:50 10° ESE visible
3 Feb ? 05:17:17 10° NNW 05:24:12 55° W 05:31:10 10° SSW visible
